Location: Bon Acre
(42.6442°N, 73.5758°W)
Time: 13:47:37
(UTC+00:00)

ARIANE 5 R/B - Pass Details

Date: 14 December 2025
Orbit: 747 x 792 km, 98.8° (Epoch: 19 January)

Event Time Altitude Azimuth Distance (km) Brightness Sun altitude
Rises 22:08:56 0° 153° (SSE) 3,209 5.7 -8.6°
Reaches altitude 10° 22:11:14 10° 149° (SSE) 2,295 4.9 -9.0°
Maximum altitude 22:16:11 58° 72° (ENE) 896 2.6 -9.8°
Drops below altitude 10° 22:21:14 10° 354° (N) 2,339 4.9 -10.7°
Sets 22:23:36 0° 350° (N) 3,278 5.6 -11.1°
